Weather History for Grazzanise, Italy

Change the Weather History Date:

Thursday, March 7, 2013

  Actual Average (LIRN) Record (LIRN)
Temperature  
Mean Temperature 54 °F -  
Max Temperature 59 °F 61 °F 71 °F (2002)
Min Temperature 48 °F 43 °F 35 °F (2005)
Degree Days  
Heating Degree Days 12    
Growing Degree Days 4 (Base 50)    
Moisture  
Dew Point 51 °F    
Average Humidity 85    
Maximum Humidity 94    
Minimum Humidity 78    
Precipitation  
Precipitation 0.00 in 0.09 in - ()
Sea Level Pressure  
Sea Level Pressure 29.76 in    
Wind  
Wind Speed 5 mph ()    
Max Wind Speed 12 mph    
Max Gust Speed -    
Visibility 3.8 miles    
Events Rain    
Averages and records for this station are not official NWS values.
T = Trace of Precipitation, MM = Missing Value Source: Averaged Metar Reports

Daily Weather History Graph

Daily Weather History Graph

Search for Another Location

Airport:

Trip Planner

Search our weather history database for the weather conditions in past years. The results will help you decide how hot, cold, wet, or windy it might be!

Date:

Astronomy

Mar. 07, 2013 Rise Set
Actual Time 6:28 AM CET 6:01 PM CET
Civil Twilight 6:01 AM CET 6:28 PM CET
Nautical Twilight 5:29 AM CET 7:00 PM CET
Astronomical Twilight 4:57 AM CET 7:32 PM CET
Moon 3:16 AM CET (3/7) 1:28 PM CET (3/7)
Length of Visible Light 12h 27m
Length of Day
11h 33m
Waning Crescent, 22% of the Moon is Illuminated
Mar 7
Waning Crescent
Mar 11
New
Mar 19
First Quarter
Mar 27
Full
Apr 3
Last Quarter

Hourly Weather History & Observations

Time (CET) Temp. Dew Point Humidity Pressure Visibility Wind Dir Wind Speed Gust Speed Precip Events Conditions
12:55 AM 55.4 °F 51.8 °F 88% 29.77 in 6.2 mi ESE 4.6 mph - N/A   Light Drizzle
1:00 AM 55 °F 53 °F 88% 29.78 in 9 mi ESE 4.6 mph - -   Overcast
1:55 AM 55.4 °F 51.8 °F 88% 29.77 in 6.2 mi East 3.5 mph - N/A   Mostly Cloudy
2:55 AM 55.4 °F 51.8 °F 88% 29.77 in 6.2 mi East 2.3 mph - N/A   Mostly Cloudy
3:55 AM 55.4 °F 51.8 °F 88% 29.74 in 6.2 mi SE 4.6 mph - N/A   Mostly Cloudy
4:00 AM 55 °F 53 °F 88% 29.75 in 9 mi SE 4.6 mph - -   Overcast
4:55 AM 55.4 °F 51.8 °F 88% 29.74 in 6.2 mi SSE 3.5 mph - N/A   Mostly Cloudy
5:55 AM 53.6 °F 50.0 °F 88% 29.74 in 4.3 mi Calm Calm - N/A Rain Light Rain
6:55 AM 51.8 °F 48.2 °F 88% 29.74 in 1.9 mi Calm Calm - N/A Rain Light Rain
7:00 AM 52 °F 47 °F 79% 29.75 in 2 mi Calm Calm - -   Overcast
7:55 AM 53.6 °F 48.2 °F 82% 29.74 in 2.5 mi Calm Calm - N/A   Light Drizzle
8:55 AM 48.2 °F 42.8 °F 82% 29.74 in 2.5 mi SSW 5.8 mph - N/A   Mostly Cloudy
9:55 AM 48.2 °F 44.6 °F 87% 29.77 in 2.5 mi SW 8.1 mph - N/A   Mostly Cloudy
10:00 AM 49 °F 44 °F 78% 29.77 in 2 mi SW 8.1 mph - -   Mist
10:55 AM 48.2 °F 44.6 °F 87% 29.77 in 3.1 mi WSW 5.8 mph - N/A Rain Light Rain
11:55 AM 51.8 °F 48.2 °F 88% 29.77 in 5.0 mi SSW 3.5 mph - N/A   Mostly Cloudy
12:55 PM 59.0 °F 55.4 °F 88% 29.77 in 5.0 mi SW 9.2 mph - N/A   Mostly Cloudy
1:00 PM 59 °F 55 °F 82% 29.78 in 5 mi SW 9.2 mph - -   Overcast
1:32 PM 59.0 °F 57.2 °F 94% 29.74 in 2.5 mi SW 9.2 mph - N/A Rain Light Rain
1:55 PM 59.0 °F 55.4 °F 88% 29.74 in 1.9 mi WSW 9.2 mph - N/A Rain Light Rain
2:55 PM 59.0 °F 53.6 °F 82% 29.74 in 2.5 mi SSW 11.5 mph - N/A Rain Light Rain
3:55 PM 59.0 °F 53.6 °F 82% 29.74 in 2.5 mi SSW 11.5 mph - N/A   Mostly Cloudy
4:00 PM 58 °F 53 °F 78% 29.75 in 2 mi SSW 11.5 mph - - Rain Light Rain
4:55 PM 59.0 °F 53.6 °F 82% 29.74 in 3.1 mi SW 9.2 mph - N/A   Mostly Cloudy
5:55 PM 57.2 °F 51.8 °F 82% 29.74 in 3.1 mi SW 10.4 mph - N/A   Mostly Cloudy
6:55 PM 57.2 °F 53.6 °F 88% 29.74 in 3.1 mi SW 9.2 mph - N/A   Mostly Cloudy
7:00 PM 57 °F 53 °F 81% 29.75 in 3 mi SW 9.2 mph - -  
7:55 PM 57.2 °F 51.8 °F 82% 29.77 in 3.1 mi SSW 5.8 mph - N/A   Mostly Cloudy
8:55 PM 57.2 °F 51.8 °F 82% 29.77 in 3.1 mi South 4.6 mph - N/A   Mostly Cloudy
9:55 PM 57.2 °F 51.8 °F 82% 29.77 in 2.5 mi South 3.5 mph - N/A   Mostly Cloudy
10:00 PM 57 °F 53 °F 80% 29.78 in 2 mi South 3.5 mph - -   Mist
10:55 PM 57.2 °F 51.8 °F 82% 29.77 in 2.5 mi SW 2.3 mph - N/A   Mostly Cloudy
11:55 PM 57.2 °F 51.8 °F 82% 29.77 in 2.5 mi SW 2.3 mph - N/A   Mostly Cloudy